Hourly Weather Changchun

Today, 14 June, Monday

Time Temperature Precipitation Wind Pressure Humidity
00:00 +21°C° 0.8 mm 3 mps 734 mmHg 83%
01:00 +20°C° 0.8 mm 3 mps 734 mmHg 85%
02:00 +20°C° 0 mm 3 mps 734 mmHg 87%
03:00 +20°C° 0.5 mm 3 mps 734 mmHg 87%
04:00 +20°C° 0.5 mm 3 mps 734 mmHg 87%
05:00 +20°C° 0.5 mm 3 mps 734 mmHg 87%
06:00 +20°C° 1.8 mm 4 mps 734 mmHg 86%
07:00 +21°C° 1.8 mm 4 mps 734 mmHg 84%
08:00 +22°C° 0 mm 4 mps 734 mmHg 80%
09:00 +23°C° 0.1 mm 4 mps 734 mmHg 71%
10:00 +26°C° 0.1 mm 4 mps 733 mmHg 63%
11:00 +28°C° 0.1 mm 5 mps 733 mmHg 54%
12:00 +28°C° 0 mm 4 mps 733 mmHg 52%
13:00 +29°C° 0 mm 4 mps 733 mmHg 51%
14:00 +29°C° 0 mm 4 mps 732 mmHg 46%
15:00 +29°C° 0 mm 3 mps 732 mmHg 51%
16:00 +28°C° 0 mm 3 mps 732 mmHg 56%
17:00 +27°C° 0 mm 2 mps 731 mmHg 61%
18:00 +26°C° 0 mm 2 mps 731 mmHg 62%
19:00 +24°C° 0 mm 2 mps 732 mmHg 63%
20:00 +23°C° 0 mm 2 mps 732 mmHg 64%
21:00 +23°C° 0 mm 2 mps 732 mmHg 65%
22:00 +22°C° 0 mm 3 mps 732 mmHg 67%
23:00 +22°C° 0 mm 3 mps 732 mmHg 68%

Tomorrow, 15 June, Tuesday

Time Temperature Precipitation Wind Pressure Humidity
00:00 +21°C° 0 mm 4 mps 732 mmHg 65%
01:00 +21°C° 0 mm 5 mps 732 mmHg 63%
02:00 +20°C° 0 mm 6 mps 732 mmHg 60%
03:00 +19°C° 0.5 mm 5 mps 732 mmHg 66%
04:00 +19°C° 0.5 mm 5 mps 732 mmHg 72%
05:00 +18°C° 0.5 mm 4 mps 732 mmHg 77%
06:00 +18°C° 3.3 mm 4 mps 732 mmHg 81%
07:00 +17°C° 3.3 mm 5 mps 732 mmHg 85%
08:00 +17°C° 3.3 mm 6 mps 733 mmHg 89%
09:00 +17°C° 0.2 mm 6 mps 733 mmHg 85%
10:00 +19°C° 0.2 mm 6 mps 733 mmHg 82%
11:00 +20°C° 0.2 mm 7 mps 733 mmHg 79%
12:00 +21°C° 0 mm 7 mps 733 mmHg 75%
13:00 +22°C° 0 mm 6 mps 733 mmHg 71%
14:00 +23°C° 0 mm 6 mps 733 mmHg 67%
15:00 +23°C° 0 mm 6 mps 733 mmHg 68%
16:00 +23°C° 0 mm 6 mps 733 mmHg 69%
17:00 +23°C° 0 mm 6 mps 733 mmHg 70%
18:00 +23°C° 0 mm 5 mps 733 mmHg 73%
19:00 +22°C° 0 mm 5 mps 733 mmHg 77%
20:00 +21°C° 0 mm 5 mps 733 mmHg 80%
21:00 +21°C° 0 mm 5 mps 733 mmHg 81%
22:00 +20°C° 0 mm 4 mps 733 mmHg 83%
23:00 +20°C° 0 mm 4 mps 734 mmHg 84%

Day after tomorrow, 16 June, Wednesday

Time Temperature Precipitation Wind Pressure Humidity
00:00 +19°C° 0 mm 4 mps 734 mmHg 85%
01:00 +19°C° 0 mm 4 mps 734 mmHg 86%
02:00 +18°C° 0 mm 3 mps 733 mmHg 88%
03:00 +18°C° 0 mm 4 mps 734 mmHg 87%
04:00 +18°C° 0 mm 4 mps 734 mmHg 87%
05:00 +18°C° 0 mm 4 mps 734 mmHg 87%
06:00 +20°C° 0 mm 4 mps 734 mmHg 80%
07:00 +22°C° 0 mm 5 mps 735 mmHg 73%
08:00 +23°C° 0 mm 5 mps 735 mmHg 66%
09:00 +26°C° 0 mm 5 mps 735 mmHg 63%
10:00 +27°C° 0 mm 5 mps 734 mmHg 59%
11:00 +28°C° 0 mm 5 mps 734 mmHg 55%
12:00 +29°C° 0 mm 5 mps 734 mmHg 53%
13:00 +29°C° 0 mm 5 mps 734 mmHg 51%
14:00 +30°C° 0 mm 4 mps 733 mmHg 49%
15:00 +29°C° 0 mm 4 mps 733 mmHg 51%
16:00 +29°C° 0 mm 4 mps 733 mmHg 54%
17:00 +29°C° 0 mm 4 mps 732 mmHg 56%
18:00 +27°C° 0 mm 4 mps 732 mmHg 60%
19:00 +26°C° 0 mm 3 mps 732 mmHg 65%
20:00 +24°C° 0 mm 3 mps 732 mmHg 69%
21:00 +23°C° 0 mm 4 mps 732 mmHg 70%
22:00 +23°C° 0 mm 5 mps 731 mmHg 70%
23:00 +23°C° 0 mm 6 mps 731 mmHg 70%

17 June, Thursday

Time Temperature Precipitation Wind Pressure Humidity
00:00 +23°C° 0 mm 7 mps 731 mmHg 71%
01:00 +22°C° 0 mm 8 mps 731 mmHg 71%
02:00 +22°C° 0 mm 9 mps 731 mmHg 71%
03:00 +21°C° 0.2 mm 8 mps 731 mmHg 74%
04:00 +21°C° 0.2 mm 8 mps 731 mmHg 76%
05:00 +20°C° 0.2 mm 8 mps 731 mmHg 79%
06:00 +20°C° 2 mm 7 mps 731 mmHg 82%
07:00 +18°C° 2 mm 7 mps 731 mmHg 85%
08:00 +17°C° 2 mm 6 mps 732 mmHg 89%
09:00 +19°C° 0.2 mm 6 mps 732 mmHg 79%
10:00 +21°C° 0.2 mm 5 mps 732 mmHg 69%
11:00 +22°C° 0.2 mm 5 mps 732 mmHg 59%
12:00 +23°C° 0 mm 5 mps 732 mmHg 54%
13:00 +25°C° 0 mm 5 mps 732 mmHg 48%
14:00 +26°C° 0 mm 5 mps 731 mmHg 43%
15:00 +26°C° 0 mm 5 mps 731 mmHg 45%
16:00 +26°C° 0 mm 5 mps 731 mmHg 47%
17:00 +25°C° 0 mm 4 mps 731 mmHg 49%
18:00 +23°C° 0 mm 4 mps 731 mmHg 58%
19:00 +21°C° 0 mm 5 mps 731 mmHg 66%
20:00 +20°C° 0 mm 5 mps 730 mmHg 74%
21:00 +19°C° 0.1 mm 4 mps 730 mmHg 80%
22:00 +18°C° 0.1 mm 4 mps 730 mmHg 86%
23:00 +17°C° 0.1 mm 4 mps 730 mmHg 91%

18 June, Friday

Time Temperature Precipitation Wind Pressure Humidity
00:00 +17°C° 0.2 mm 3 mps 729 mmHg 92%
01:00 +17°C° 0.2 mm 3 mps 728 mmHg 93%
02:00 +16°C° 0.2 mm 3 mps 728 mmHg 94%
03:00 +16°C° 2.4 mm 3 mps 728 mmHg 94%
04:00 +16°C° 2.4 mm 3 mps 727 mmHg 95%
05:00 +16°C° 2.4 mm 3 mps 727 mmHg 95%
06:00 +15°C° 1.1 mm 4 mps 727 mmHg 90%
07:00 +16°C° 1.1 mm 5 mps 728 mmHg 84%
08:00 +16°C° 1.1 mm 6 mps 728 mmHg 79%
09:00 +16°C° 0.4 mm 6 mps 728 mmHg 77%
10:00 +17°C° 0.4 mm 6 mps 728 mmHg 74%
11:00 +17°C° 0.4 mm 6 mps 728 mmHg 71%
12:00 +20°C° 0 mm 6 mps 728 mmHg 65%
13:00 +21°C° 0 mm 6 mps 728 mmHg 59%
14:00 +22°C° 0 mm 6 mps 728 mmHg 53%
15:00 +22°C° 0 mm 5 mps 728 mmHg 54%
16:00 +22°C° 0 mm 4 mps 728 mmHg 56%
17:00 +22°C° 0 mm 3 mps 728 mmHg 57%
18:00 +21°C° 0.1 mm 3 mps 728 mmHg 62%
19:00 +19°C° 0.1 mm 4 mps 728 mmHg 68%
20:00 +18°C° 0.1 mm 4 mps 728 mmHg 73%
21:00 +17°C° 0.1 mm 4 mps 728 mmHg 75%
22:00 +16°C° 0.1 mm 3 mps 728 mmHg 78%
23:00 +16°C° 0.1 mm 3 mps 728 mmHg 80%

19 June, Saturday

Time Temperature Precipitation Wind Pressure Humidity
00:00 +16°C° 0 mm 3 mps 728 mmHg 80%
01:00 +16°C° 0 mm 3 mps 728 mmHg 80%
02:00 +16°C° 0 mm 3 mps 728 mmHg 80%
03:00 +16°C° 0 mm 2 mps 728 mmHg 80%
04:00 +16°C° 0 mm 2 mps 729 mmHg 80%
05:00 +16°C° 0 mm 1 mps 729 mmHg 80%
06:00 +18°C° 0 mm 2 mps 729 mmHg 73%
07:00 +19°C° 0 mm 2 mps 729 mmHg 66%
08:00 +21°C° 0 mm 2 mps 730 mmHg 59%
09:00 +22°C° 0 mm 3 mps 730 mmHg 55%
10:00 +23°C° 0 mm 4 mps 729 mmHg 52%
11:00 +26°C° 0 mm 4 mps 729 mmHg 48%
12:00 +26°C° 0 mm 4 mps 729 mmHg 45%
13:00 +27°C° 0 mm 4 mps 729 mmHg 43%
14:00 +28°C° 0 mm 3 mps 729 mmHg 41%
15:00 +28°C° 0 mm 3 mps 729 mmHg 41%
16:00 +28°C° 0 mm 2 mps 729 mmHg 42%
17:00 +28°C° 0 mm 1 mps 729 mmHg 42%
18:00 +25°C° 0.2 mm 1 mps 729 mmHg 52%
19:00 +21°C° 0.2 mm 2 mps 729 mmHg 62%
20:00 +18°C° 0.2 mm 2 mps 730 mmHg 71%
21:00 +18°C° 0 mm 2 mps 730 mmHg 74%
22:00 +18°C° 0 mm 3 mps 730 mmHg 77%
23:00 +17°C° 0 mm 3 mps 730 mmHg 80%
Show more

We Need Your Consent

Meteoprog and our Service Providers may store and access personal data such as cookies, device identifiers or other similar technologies on your device and process such data to personalise content and ads, as well as provide social media features and to analyse the traffic.

  • Store and/or access information on your device

    Cookies, device identifiers or other information can be stored or accessed on your device for the purposes indicated above.

  • Personalised ads and content, ad and content measurement, audience insights, and products development

    Ads and content can be personalised based on a profile. More data can be added to better personalise ads and content. Ad and content performance can be measured. Insights about the audience who saw the ads and content can be derived. Such data can be used to develop or improve user’s experience, systems and software.

By clicking ‘I Agree’ you will allow the use of indicated cookies, device identifiers, web beacons or other similar technologies. Your settings can be changed in the browser on your device.

For certain purposes, legitimate interests may be relied on, rather than consent. You can read more about this in our Privacy and Cookie Policy.